Location: *
(17.3280°S, 114.7300°W)
Time: 05:36:04
(UTC+00:00)

Okean O Rocket - Pass Details

Date: 05 August 2020
Orbit: 623 x 644 km, 98.2° (Epoch: 20 September)

Event Time Altitude Azimuth Distance (km) Brightness Sun altitude
Rises 13:14:18 0° 10° (N) 2,935 5.4 -12.0°
Reaches altitude 10° 13:16:30 10° 9° (N) 2,032 4.5 -11.5°
Maximum altitude 13:20:56 80° 281° (WNW) 659 1.6 -10.4°
Drops below altitude 10° 13:25:24 10° 194° (SSW) 2,049 3.9 -9.4°
Sets 13:27:37 0° 193° (SSW) 2,962 4.8 -8.9°
